Location: Eyeline Observatory
(43.2182°N, 78.8632°W)
Time: 16:51:19
(UTC-05:00)

OTV 5 (USA 277) - Pass Details

Date: 10 October 2017
Orbit: 404 x 417 km, 43.0° (Epoch: 07 September)

Event Time Altitude Azimuth Distance (km) Brightness Sun altitude
Rises 19:42:32 0° 225° (SW) 2,345 ? -12.1°
Reaches altitude 10° 19:44:49 10° 213° (SSW) 1,485 ? -12.5°
Maximum altitude 19:47:43 27° 153° (SSE) 834 ? -13.1°
Enters shadow 19:48:51 22° 119° (ESE) 966 ? -13.3°
